Miscellaneous Local Product
Issued by NWS Hastings, NE

Home | Current Version | Previous Version | Graphics & Text | Print | Product List | Glossary On
Versions: 1 2 3 4 5 6 7 8 9 10 11 12 13 14 15 16 17 18 19 20 21 22 23 24 25 26 27 28 29 30 31 32 33 34 35 36 37 38 39 40 41 42 43 44 45 46 47 48 49 50
000
AXUS43 KGID 181702
MISGRI

GID CWA HOURLY WEATHER ROUNDUP
NATIONAL WEATHER SERVICE HASTINGS NE
1100 AM CST SAT FEB 18 2017

NOTE: "FAIR" INDICATES FEW OR NO CLOUDS BELOW 12,000 FEET WITH NO
SIGNIFICANT WEATHER AND/OR OBSTRUCTIONS TO VISIBILITY.

...SOUTH CENTRAL NEBRASKA...

CITY           SKY/WX    TMP DP  RH WIND       PRES   REMARKS
GRAND ISLAND   SUNNY     52  35  52 E9        29.84S
HASTINGS       SUNNY     56  33  42 SE12      29.84S
KEARNEY        SUNNY     55  30  38 CALM      29.84S
ORD            SUNNY     53  30  41 E5        29.83R
YORK           SUNNY     55  36  47 E9        29.84F
AURORA         SUNNY     55  33  44 E10       29.83F
LEXINGTON      SUNNY     52  31  45 SE8       29.84R
HOLDREGE       SUNNY     54  32  43 E13       29.82F
HEBRON         SUNNY     56  35  45 E13       29.83S

...NEBRASKA PANHANDLE...

CITY           SKY/WX    TMP DP  RH WIND       PRES   REMARKS
CHADRON        MOSUNNY   54  28  36 S18G25    29.69S
ALLIANCE       CLOUDY    49  23  36 S17       29.76S
SCOTTSBLUFF    CLOUDY    53  26  35 S13       29.75S
SIDNEY         CLOUDY    49  26  41 S16       29.79F

...WESTERN AND NORTH CENTRAL NEBRASKA...

CITY           SKY/WX    TMP DP  RH WIND       PRES   REMARKS
VALENTINE        N/A     51  28  41 S8        29.79R
AINSWORTH      SUNNY     54  32  44 S12       29.80F
ONEILL         SUNNY     55  33  44 S5        29.83S
BROKEN BOW     SUNNY     53  31  42 SE12      29.82R
IMPERIAL       SUNNY     49  28  44 S8        29.82F
NORTH PLATTE   SUNNY     50  29  44 CALM      29.82S
MCCOOK         SUNNY     49  30  48 E3        29.83S

...EASTERN NEBRASKA...

CITY           SKY/WX    TMP DP  RH WIND       PRES   REMARKS
NORFOLK        SUNNY     51  31  46 MISG      29.83S
SO SIOUX CITY  SUNNY     49  37  63 SW3       29.84S
TEKAMAH        SUNNY     48  37  65 S3        29.86R
COLUMBUS       SUNNY     52  36  54 CALM      29.85F
ALBION         SUNNY     52  36  53 SE3       29.84R
OMAHA EPPLEY   MOSUNNY   54  37  52 N6        29.84S
OFFUTT AFB     SUNNY     56  38  52 NE6       29.84S
MILLARD        SUNNY     58  37  46 E6        29.84F
LINCOLN        SUNNY     56  35  45 E8        29.86F
NEBRASKA CITY  SUNNY     53  31  43 N6        29.85R
BEATRICE       SUNNY     58  37  44 E7        29.83F
FALLS CITY     SUNNY     57  38  48 E6        29.82F

...NORTHERN KANSAS...

CITY           SKY/WX    TMP DP  RH WIND       PRES   REMARKS
GOODLAND       SUNNY     50  32  50 SE6       29.82S
HILL CITY      SUNNY     54  36  50 E8        29.82F
NORTON         SUNNY     54  30  40 E8        29.81F
PHILLIPSBURG   SUNNY     55  34  44 E12       29.82F
SMITH CENTER   SUNNY     55  36  47 E12       29.83S
HAYS           SUNNY     51  38  60 MISG      29.81S
RUSSELL        SUNNY     53  40  61 SW3       29.80R
CONCORDIA      SUNNY     56  40  55 E8        29.81S
SALINA         SUNNY     61  44  53 SE7       29.81S
TOPEKA         SUNNY     58  42  55 CALM      29.83S



USA.gov is the U.S. government's official web portal to all federal, state and local government web resources and services.